User: anonymous   Login
Location: Unspecified
(0.0000°N, 0.0000°E)
Time: 19:02:38
(UTC+00:00)
Language:

deb Explorer IX - Orbit

View from above orbital plane
View from above orbital plane
View from above satellite
View from above satellite

Ground track
Ground track

The orbit data is extracted from the following two-line orbital elements,

1    85U 61004C   19107.84613820 -.00000044 +00000-0 +11034-4 0  9996
2    85 038.7790 035.2187 0401948 179.9197 180.1668 14.19667056870431
Epoch (UTC): 17 April 2019 20:18:26
Eccentricity: 0.0401948
inclination: 38.7790°
perigee height: 537 km
apogee height: 1116 km
right ascension of ascending node: 35.2187°
argument of perigee: 179.9197°
revolutions per day: 14.19667056
mean anomaly at epoch: 180.1668°
orbit number at epoch: 87043

The dashed part of the orbit path shows where the satellite is in the earth's shadow,  

DLR